Change the Weather History Date:

Monday, January 20, 2014

  Actual Average (KLOT) Record (KLOT)
Temperature  
Mean Temperature 26 °F 23 °F  
Max Temperature 34 °F 30 °F 47 °F (2006)
Min Temperature 16 °F 16 °F -11 °F (1994)
Degree Days  
Heating Degree Days 40 42  
Month to date heating degree days 837  
Since 1 July heating degree days 3223  
Cooling Degree Days 0 0  
Month to date cooling degree days 0  
Year to date cooling degree days 0  
Moisture  
Dew Point 23 °F    
Average Humidity 77    
Maximum Humidity 90    
Minimum Humidity 70    
Precipitation  
Precipitation 0.00 in 0.05 in 0.88 in (2006)
Month to date precipitation 1.36  
Year to date precipitation 1.36  
Snow  
Snow 0.00 in 0.40 in 6.60 in (2012)
Month to date snowfall 7.1  
Since 1 July snowfall 17.3  
Snow Depth -    
Sea Level Pressure  
Sea Level Pressure 29.86 in    
Wind  
Wind Speed 10 mph (NW)    
Max Wind Speed 16 mph    
Max Gust Speed 21 mph    
Visibility 8 miles    
Events Snow    
T = Trace of Precipitation, MM = Missing Value Source: NWS Daily Summary

Daily Weather History Graph

Daily Weather History Graph

Search for Another Location

Airport or City:

Trip Planner

Search our weather history database for the weather conditions in past years. The results will help you decide how hot, cold, wet, or windy it might be!

Date:

Astronomy

Jan. 20, 2014 Rise Set
Actual Time 7:14 AM CST 4:54 PM CST
Civil Twilight 6:44 AM CST 5:25 PM CST
Nautical Twilight 6:10 AM CST 5:58 PM CST
Astronomical Twilight 5:37 AM CST 6:31 PM CST
Moon 9:33 PM CST (1/20) 9:11 AM CST (1/20)
Length of Visible Light 10h 40m
Length of Day
9h 40m
Waning Gibbous, 82% of the Moon is Illuminated
Jan 20
Waning Gibbous
Jan 23
Last Quarter
Jan 30
New
Feb 6
First Quarter
Feb 14
Full

Hourly Weather History & Observations

Time (CST) Temp. Windchill Dew Point Humidity Pressure Visibility Wind Dir Wind Speed Gust Speed Precip Events Conditions
12:15 AM 34.7 °F 25.1 °F 26.6 °F 72% 29.61 in 10.0 mi WNW 15.0 mph - N/A   Clear
12:35 AM 32.2 °F 22.3 °F 25.5 °F 76% 29.62 in 10.0 mi WNW 13.8 mph - N/A   Clear
12:55 AM 30.9 °F 19.8 °F 24.6 °F 77% 29.63 in 10.0 mi WNW 16.1 mph - N/A   Clear
1:15 AM 30.9 °F 20.2 °F 24.4 °F 77% 29.64 in 10.0 mi WNW 15.0 mph - N/A   Clear
1:35 AM 32.0 °F 22.5 °F 25.2 °F 76% 29.66 in 10.0 mi West 12.7 mph - N/A   Scattered Clouds
1:55 AM 32.7 °F 23.9 °F 26.1 °F 76% 29.68 in 10.0 mi WNW 11.5 mph - N/A   Overcast
2:15 AM 33.8 °F 23.9 °F 26.8 °F 75% 29.68 in 10.0 mi WNW 15.0 mph - N/A   Overcast
2:35 AM 34.7 °F 25.9 °F 27.0 °F 73% 29.70 in 10.0 mi WNW 12.7 mph - N/A   Overcast
2:55 AM 34.9 °F 26.2 °F 27.1 °F 73% 29.72 in 10.0 mi WNW 12.7 mph - N/A   Overcast
3:15 AM 34.9 °F 26.6 °F 27.3 °F 74% 29.71 in 10.0 mi WNW 11.5 mph - N/A   Overcast
3:35 AM 32.9 °F 24.1 °F 26.2 °F 76% 29.72 in 10.0 mi WNW 11.5 mph - N/A   Overcast
3:55 AM 32.0 °F 23.0 °F 25.3 °F 76% 29.73 in 10.0 mi WNW 11.5 mph - N/A   Mostly Cloudy
4:15 AM 31.5 °F 23.5 °F 24.8 °F 76% 29.74 in 10.0 mi WNW 9.2 mph - N/A   Mostly Cloudy
4:35 AM 32.0 °F 24.2 °F 25.5 °F 77% 29.75 in 10.0 mi WNW 9.2 mph - N/A   Overcast
4:55 AM 32.9 °F 24.7 °F 26.4 °F 77% 29.75 in 10.0 mi WNW 10.4 mph - N/A   Overcast
5:15 AM 33.8 °F 27.0 °F 26.8 °F 75% 29.76 in 10.0 mi NW 8.1 mph - N/A   Overcast
5:35 AM 33.8 °F 27.7 °F 26.6 °F 75% 29.77 in 10.0 mi NW 6.9 mph - N/A   Overcast
5:55 AM 32.4 °F 26.0 °F 26.4 °F 79% 29.78 in 10.0 mi NW 6.9 mph - N/A   Overcast
6:15 AM 32.9 °F 27.5 °F 26.8 °F 78% 29.79 in 10.0 mi NW 5.8 mph - N/A   Overcast
6:35 AM 34.5 °F 31.6 °F 26.4 °F 72% 29.81 in 10.0 mi NNW 3.5 mph - N/A   Overcast
6:55 AM 33.8 °F - 26.6 °F 75% 29.81 in 10.0 mi Calm Calm - N/A   Overcast
7:15 AM 32.2 °F - 25.0 °F 75% 29.80 in 10.0 mi Calm Calm - N/A   Mostly Cloudy
7:35 AM 32.0 °F - 23.9 °F 72% 29.81 in 10.0 mi Calm Calm - N/A   Scattered Clouds
7:55 AM 31.6 °F - 23.0 °F 70% 29.82 in 10.0 mi Calm Calm - N/A   Mostly Cloudy
8:15 AM 29.5 °F 24.5 °F 24.4 °F 81% 29.83 in 10.0 mi West 4.6 mph - N/A   Overcast
8:35 AM 30.4 °F 25.6 °F 25.2 °F 81% 29.83 in 10.0 mi West 4.6 mph - N/A   Overcast
8:55 AM 31.1 °F 27.7 °F 25.7 °F 80% 29.83 in 10.0 mi SW 3.5 mph - N/A   Overcast
9:15 AM 31.3 °F 24.7 °F 24.8 °F 77% 29.85 in 10.0 mi WSW 6.9 mph - N/A   Overcast
9:35 AM 31.8 °F 24.6 °F 25.0 °F 76% 29.86 in 10.0 mi West 8.1 mph - N/A   Overcast
9:55 AM 32.0 °F 26.4 °F 25.2 °F 76% 29.87 in 10.0 mi West 5.8 mph - N/A   Overcast
10:15 AM 32.0 °F 25.6 °F 25.3 °F 76% 29.88 in 10.0 mi West 6.9 mph - N/A   Overcast
10:35 AM 32.0 °F 23.6 °F 24.8 °F 75% 29.89 in 10.0 mi West 10.4 mph - N/A   Overcast
10:55 AM 32.0 °F 24.8 °F 24.8 °F 75% 29.89 in 10.0 mi West 8.1 mph - N/A   Overcast
11:15 AM 32.0 °F 23.0 °F 24.8 °F 75% 29.88 in 10.0 mi West 11.5 mph - N/A   Overcast
11:35 AM 32.4 °F 24.0 °F 25.3 °F 75% 29.89 in 10.0 mi West 10.4 mph - N/A   Overcast
11:55 AM 32.2 °F 24.4 °F 24.6 °F 74% 29.88 in 10.0 mi West 9.2 mph - N/A   Mostly Cloudy
12:15 PM 32.4 °F 23.0 °F 24.3 °F 72% 29.88 in 10.0 mi West 12.7 mph - N/A   Scattered Clouds
12:35 PM 32.0 °F 23.6 °F 24.6 °F 74% 29.88 in 10.0 mi WNW 10.4 mph - N/A   Scattered Clouds
12:55 PM 32.0 °F 23.0 °F 24.8 °F 75% 29.88 in 10.0 mi WNW 11.5 mph - N/A   Clear
1:15 PM 32.5 °F 24.2 °F 24.6 °F 73% 29.88 in 10.0 mi WNW 10.4 mph - N/A   Clear
1:35 PM 32.9 °F 24.7 °F 24.8 °F 72% 29.87 in 10.0 mi WNW 10.4 mph - N/A   Clear
1:55 PM 33.4 °F 25.4 °F 24.8 °F 71% 29.87 in 10.0 mi WNW 10.4 mph - N/A   Clear
2:15 PM 32.9 °F 26.7 °F 25.2 °F 73% 29.88 in 10.0 mi West 6.9 mph - N/A   Clear
2:35 PM 32.9 °F 25.9 °F 25.0 °F 73% 29.88 in 10.0 mi West 8.1 mph - N/A   Clear
2:55 PM 32.0 °F 25.6 °F 24.8 °F 75% 29.88 in 10.0 mi West 6.9 mph - N/A   Clear
3:15 PM 32.0 °F 26.4 °F 24.8 °F 75% 29.89 in 10.0 mi WNW 5.8 mph - N/A   Clear
3:35 PM 32.0 °F 25.6 °F 24.8 °F 75% 29.90 in 10.0 mi WNW 6.9 mph - N/A   Clear
3:55 PM 32.2 °F 25.0 °F 25.2 °F 75% 29.90 in 10.0 mi WNW 8.1 mph - N/A   Clear
4:15 PM 32.4 °F 24.6 °F 25.2 °F 75% 29.91 in 10.0 mi WNW 9.2 mph - N/A   Scattered Clouds
4:35 PM 32.2 °F 25.0 °F 25.5 °F 76% 29.91 in 10.0 mi WNW 8.1 mph - N/A   Mostly Cloudy
4:55 PM 32.0 °F 26.4 °F 25.3 °F 76% 29.91 in 10.0 mi NW 5.8 mph - N/A   Overcast
5:15 PM 32.0 °F 27.5 °F 24.8 °F 75% 29.92 in 10.0 mi NW 4.6 mph - N/A   Overcast
5:35 PM 32.0 °F 27.5 °F 24.8 °F 75% 29.92 in 10.0 mi NW 4.6 mph - N/A   Overcast
5:55 PM 31.5 °F 25.8 °F 25.3 °F 78% 29.92 in 10.0 mi NW 5.8 mph - N/A   Overcast
6:15 PM 30.9 °F 23.5 °F 25.0 °F 79% 29.93 in 1.8 mi NE 8.1 mph - N/A Snow Light Snow
6:35 PM 29.1 °F 24.1 °F 25.5 °F 86% 29.94 in 1.8 mi NE 4.6 mph - N/A Snow Light Snow
6:55 PM 28.4 °F 22.2 °F 25.7 °F 90% 29.96 in 2.0 mi NE 5.8 mph - N/A Snow Light Snow
7:15 PM 27.5 °F 19.3 °F 22.5 °F 81% 29.96 in 3.0 mi NE 8.1 mph - N/A Snow Light Snow
7:35 PM 26.6 °F 19.1 °F 21.4 °F 81% 29.97 in 2.0 mi NE 6.9 mph - N/A Snow Light Snow
7:55 PM 25.5 °F 16.2 °F 20.5 °F 81% 29.97 in 1.5 mi NNE 9.2 mph - N/A Snow Light Snow
8:15 PM 24.8 °F 16.1 °F 20.1 °F 82% 29.98 in 1.5 mi NE 8.1 mph - N/A Snow Light Snow
8:35 PM 23.9 °F 15.8 °F 19.0 °F 82% 29.99 in 1.2 mi NNE 6.9 mph 18.4 mph N/A Snow Light Snow
8:55 PM 22.6 °F 11.9 °F 17.8 °F 82% 29.99 in 1.2 mi NNE 10.4 mph 20.7 mph N/A Snow Light Snow
9:15 PM 21.7 °F 10.2 °F 16.9 °F 82% 30.00 in 1.0 mi North 11.5 mph 18.4 mph N/A Snow Light Snow
9:35 PM 20.3 °F 8.3 °F 15.3 °F 81% 30.00 in 1.2 mi NNE 11.5 mph 18.4 mph N/A Snow Light Snow
9:55 PM 19.6 °F 8.1 °F 14.7 °F 81% 30.00 in 1.2 mi NNE 10.4 mph 16.1 mph N/A Snow Light Snow
10:15 PM 19.2 °F 7.7 °F 13.8 °F 80% 29.99 in 1.5 mi NNE 10.4 mph 17.3 mph N/A Snow Light Snow
10:35 PM 18.9 °F 7.2 °F 13.1 °F 78% 30.00 in 1.5 mi North 10.4 mph 19.6 mph N/A Snow Light Snow
10:55 PM 18.5 °F 6.8 °F 13.1 °F 79% 30.00 in 1.2 mi North 10.4 mph 19.6 mph N/A Snow Light Snow
11:15 PM 18.0 °F 5.4 °F 12.4 °F 79% 30.01 in 1.5 mi North 11.5 mph 18.4 mph N/A Snow Light Snow
11:35 PM 17.6 °F 5.0 °F 11.8 °F 78% 30.02 in 2.0 mi North 11.5 mph 19.6 mph N/A Snow Light Snow
11:55 PM 16.3 °F 3.4 °F 10.8 °F 79% 30.03 in 1.5 mi North 11.5 mph 19.6 mph N/A Snow Light Snow